When you browse on this site, cookies collect data to enhance your experience and personalize the content and advertising you see.
Visit our Privacy Policy to learn more. By continuing to use the site, you agree to this use of cookies and data.
  • In Romania
  • List of Countries
  • For 7 days
  • Water Temperature
  • Satellite Maps
  • Weather Map
  • Weather Widgets
  • user-avatar
    Login

    Hourly Weather Olsztyn

    Today, 20 May, Monday

    Time Temperature Precipitation Wind Pressure Humidity
    00:00 +16°C° 0 mm 3 mps 745 mmHg 97%
    01:00 +16°C° 0 mm 3 mps 745 mmHg 98%
    02:00 +14°C° 0 mm 3 mps 745 mmHg 98%
    03:00 +14°C° 0 mm 3 mps 745 mmHg 98%
    04:00 +14°C° 0 mm 3 mps 745 mmHg 98%
    05:00 +16°C° 0 mm 3 mps 745 mmHg 95%
    06:00 +17°C° 0 mm 3 mps 745 mmHg 93%
    07:00 +19°C° 0 mm 4 mps 745 mmHg 90%
    08:00 +20°C° 0 mm 4 mps 744 mmHg 87%
    09:00 +20°C° 0 mm 5 mps 744 mmHg 84%
    10:00 +21°C° 0 mm 5 mps 744 mmHg 81%
    11:00 +21°C° 0 mm 5 mps 744 mmHg 82%
    12:00 +21°C° 0 mm 5 mps 744 mmHg 83%
    13:00 +21°C° 0 mm 5 mps 744 mmHg 85%
    14:00 +22°C° 0 mm 5 mps 743 mmHg 80%
    15:00 +23°C° 0 mm 5 mps 743 mmHg 76%
    16:00 +25°C° 0 mm 5 mps 743 mmHg 71%
    17:00 +23°C° 0.3 mm 5 mps 743 mmHg 77%
    18:00 +21°C° 0.3 mm 4 mps 743 mmHg 83%
    19:00 +19°C° 0.3 mm 4 mps 743 mmHg 89%
    20:00 +19°C° 0 mm 3 mps 743 mmHg 91%
    21:00 +18°C° 0 mm 3 mps 743 mmHg 93%
    22:00 +17°C° 0 mm 3 mps 743 mmHg 95%
    23:00 +17°C° 0 mm 3 mps 743 mmHg 95%

    Tomorrow, 21 May, Tuesday

    Time Temperature Precipitation Wind Pressure Humidity
    00:00 +17°C° 0 mm 3 mps 743 mmHg 94%
    01:00 +17°C° 0 mm 4 mps 743 mmHg 94%
    02:00 +17°C° 0 mm 4 mps 743 mmHg 95%
    03:00 +15°C° 0 mm 4 mps 743 mmHg 96%
    04:00 +15°C° 0 mm 4 mps 743 mmHg 97%
    05:00 +17°C° 0 mm 4 mps 743 mmHg 93%
    06:00 +18°C° 0 mm 4 mps 743 mmHg 89%
    07:00 +20°C° 0 mm 5 mps 743 mmHg 85%
    08:00 +20°C° 0 mm 5 mps 743 mmHg 83%
    09:00 +20°C° 0 mm 5 mps 743 mmHg 81%
    10:00 +21°C° 0 mm 5 mps 743 mmHg 80%
    11:00 +21°C° 0.1 mm 5 mps 743 mmHg 80%
    12:00 +21°C° 0.1 mm 5 mps 742 mmHg 80%
    13:00 +21°C° 0.1 mm 5 mps 742 mmHg 79%
    14:00 +21°C° 0 mm 5 mps 742 mmHg 76%
    15:00 +22°C° 0 mm 5 mps 742 mmHg 72%
    16:00 +22°C° 0 mm 5 mps 742 mmHg 68%
    17:00 +21°C° 0 mm 5 mps 742 mmHg 73%
    18:00 +20°C° 0 mm 4 mps 742 mmHg 78%
    19:00 +19°C° 0 mm 3 mps 741 mmHg 82%
    20:00 +18°C° 0 mm 3 mps 742 mmHg 86%
    21:00 +17°C° 0 mm 3 mps 742 mmHg 90%
    22:00 +16°C° 0 mm 3 mps 742 mmHg 94%
    23:00 +14°C° 0 mm 3 mps 742 mmHg 94%

    Day after tomorrow, 22 May, Wednesday

    Time Temperature Precipitation Wind Pressure Humidity
    00:00 +13°C° 0 mm 3 mps 742 mmHg 95%
    01:00 +13°C° 0 mm 3 mps 742 mmHg 96%
    02:00 +13°C° 0 mm 3 mps 742 mmHg 95%
    03:00 +13°C° 0 mm 3 mps 742 mmHg 94%
    04:00 +13°C° 0 mm 3 mps 742 mmHg 93%
    05:00 +14°C° 0 mm 4 mps 743 mmHg 90%
    06:00 +15°C° 0 mm 4 mps 743 mmHg 87%
    07:00 +17°C° 0 mm 4 mps 743 mmHg 84%
    08:00 +18°C° 0 mm 4 mps 743 mmHg 77%
    09:00 +20°C° 0 mm 4 mps 743 mmHg 70%
    10:00 +21°C° 0 mm 4 mps 743 mmHg 63%
    11:00 +22°C° 0.1 mm 4 mps 743 mmHg 60%
    12:00 +22°C° 0.1 mm 4 mps 743 mmHg 58%
    13:00 +23°C° 0.1 mm 4 mps 743 mmHg 55%
    14:00 +23°C° 0.2 mm 4 mps 743 mmHg 57%
    15:00 +23°C° 0.2 mm 4 mps 743 mmHg 59%
    16:00 +24°C° 0.2 mm 3 mps 743 mmHg 61%
    17:00 +21°C° 0.2 mm 3 mps 743 mmHg 67%
    18:00 +20°C° 0.2 mm 2 mps 743 mmHg 74%
    19:00 +19°C° 0.2 mm 1 mps 743 mmHg 81%
    20:00 +18°C° 0.2 mm 1 mps 743 mmHg 85%
    21:00 +16°C° 0.2 mm 1 mps 743 mmHg 88%
    22:00 +15°C° 0.2 mm 1 mps 744 mmHg 91%
    23:00 +15°C° 0 mm 1 mps 744 mmHg 92%

    23 May, Thursday

    Time Temperature Precipitation Wind Pressure Humidity
    00:00 +14°C° 0 mm 1 mps 744 mmHg 93%
    01:00 +14°C° 0 mm 1 mps 744 mmHg 94%
    02:00 +14°C° 0 mm 1 mps 744 mmHg 95%
    03:00 +14°C° 0 mm 1 mps 744 mmHg 95%
    04:00 +13°C° 0 mm 1 mps 745 mmHg 96%
    05:00 +14°C° 0.1 mm 2 mps 745 mmHg 94%
    06:00 +14°C° 0.1 mm 3 mps 745 mmHg 93%
    07:00 +15°C° 0.1 mm 4 mps 746 mmHg 91%
    08:00 +14°C° 0.1 mm 5 mps 746 mmHg 91%
    09:00 +14°C° 0.1 mm 5 mps 746 mmHg 90%
    10:00 +14°C° 0.1 mm 5 mps 747 mmHg 90%
    11:00 +13°C° 0 mm 6 mps 747 mmHg 88%
    12:00 +13°C° 0 mm 6 mps 747 mmHg 85%
    13:00 +11°C° 0 mm 6 mps 747 mmHg 83%
    14:00 +11°C° 0 mm 6 mps 748 mmHg 81%
    15:00 +11°C° 0 mm 6 mps 748 mmHg 78%
    16:00 +11°C° 0 mm 6 mps 748 mmHg 76%
    17:00 +10°C° 0 mm 5 mps 748 mmHg 76%
    18:00 +10°C° 0 mm 5 mps 748 mmHg 76%
    19:00 +10°C° 0 mm 4 mps 749 mmHg 77%
    20:00 +8°C° 0 mm 4 mps 749 mmHg 81%
    21:00 +8°C° 0 mm 3 mps 749 mmHg 85%
    22:00 +7°C° 0 mm 3 mps 749 mmHg 89%
    23:00 +7°C° 0 mm 3 mps 749 mmHg 91%

    24 May, Friday

    Time Temperature Precipitation Wind Pressure Humidity
    00:00 +7°C° 0 mm 3 mps 749 mmHg 92%
    01:00 +7°C° 0 mm 3 mps 749 mmHg 94%
    02:00 +5°C° 0 mm 3 mps 749 mmHg 95%
    03:00 +5°C° 0 mm 3 mps 749 mmHg 96%
    04:00 +6°C° 0 mm 2 mps 749 mmHg 97%
    05:00 +8°C° 0 mm 3 mps 749 mmHg 90%
    06:00 +10°C° 0 mm 3 mps 749 mmHg 84%
    07:00 +12°C° 0 mm 3 mps 749 mmHg 78%
    08:00 +13°C° 0 mm 3 mps 749 mmHg 71%
    09:00 +16°C° 0 mm 3 mps 749 mmHg 65%
    10:00 +18°C° 0 mm 3 mps 749 mmHg 58%
    11:00 +18°C° 0 mm 3 mps 748 mmHg 57%
    12:00 +18°C° 0 mm 3 mps 748 mmHg 56%
    13:00 +19°C° 0 mm 3 mps 748 mmHg 54%
    14:00 +19°C° 0 mm 3 mps 747 mmHg 56%
    15:00 +18°C° 0 mm 3 mps 747 mmHg 57%
    16:00 +18°C° 0 mm 3 mps 747 mmHg 58%
    17:00 +17°C° 0 mm 2 mps 746 mmHg 66%
    18:00 +15°C° 0 mm 2 mps 746 mmHg 73%
    19:00 +14°C° 0 mm 2 mps 746 mmHg 80%
    20:00 +13°C° 0 mm 2 mps 746 mmHg 85%
    21:00 +12°C° 0 mm 2 mps 746 mmHg 89%
    22:00 +9°C° 0 mm 2 mps 746 mmHg 93%
    23:00 +10°C° 0 mm 1 mps 746 mmHg 93%

    25 May, Saturday

    Time Temperature Precipitation Wind Pressure Humidity
    00:00 +9°C° 0 mm 1 mps 746 mmHg 92%
    01:00 +9°C° 0 mm 1 mps 746 mmHg 92%
    02:00 +9°C° 0 mm 1 mps 746 mmHg 91%
    03:00 +8°C° 0 mm 1 mps 746 mmHg 90%
    04:00 +8°C° 0 mm 1 mps 746 mmHg 89%
    05:00 +10°C° 0 mm 1 mps 746 mmHg 80%
    06:00 +12°C° 0 mm 1 mps 746 mmHg 72%
    07:00 +14°C° 0 mm 0 mps 746 mmHg 63%
    08:00 +15°C° 0 mm 0 mps 746 mmHg 57%
    09:00 +19°C° 0 mm 1 mps 746 mmHg 52%
    10:00 +21°C° 0 mm 1 mps 746 mmHg 46%
    11:00 +21°C° 0 mm 1 mps 746 mmHg 44%
    12:00 +22°C° 0 mm 1 mps 746 mmHg 43%
    13:00 +22°C° 0 mm 1 mps 745 mmHg 41%
    14:00 +22°C° 0 mm 1 mps 745 mmHg 43%
    15:00 +21°C° 0 mm 2 mps 745 mmHg 44%
    16:00 +21°C° 0 mm 2 mps 745 mmHg 46%
    17:00 +19°C° 0 mm 2 mps 745 mmHg 54%
    18:00 +18°C° 0 mm 2 mps 745 mmHg 62%
    19:00 +16°C° 0 mm 2 mps 745 mmHg 70%
    20:00 +15°C° 0 mm 1 mps 745 mmHg 75%
    21:00 +14°C° 0 mm 1 mps 745 mmHg 79%
    22:00 +12°C° 0 mm 1 mps 745 mmHg 84%
    23:00 +12°C° 0 mm 1 mps 745 mmHg 85%
    Show more